DLH4HU EPKK-EDDF

Flight info

Callsign DLH4HU
Flight time 1h 13m
Altitude 34000
Route ADADO M992 UTEVO DCT RAPET T170 VAGAB/N0408F240 T170 GAPLA T178 KERAX KERAX5A
Aircraft A320/M-SDE3FGHIRWY/LB1

Departure

Time 2026-05-07 10:35
Airport Kraków John Paul II International Airport (EPKK)

Arrival

Time 2026-05-07 11:49
Airport Frankfurt Main Airport (EDDF)
Time Latitude Longitude Altitude Speed Heading
2026-05-07 09:40 50.07325 19.80107 800 ft 0 kts 166°
2026-05-07 10:26 50.07339 19.80102 800 ft 4 kts 168°
2026-05-07 10:26 50.07365 19.80094 800 ft 4 kts 169°
2026-05-07 10:26 50.07386 19.80087 800 ft 4 kts 159°
2026-05-07 10:27 50.07403 19.80066 800 ft 4 kts 92°
2026-05-07 10:27 50.07399 19.80030 800 ft 2 kts 77°
2026-05-07 10:27 50.07399 19.80028 800 ft 0 kts 77°
2026-05-07 10:30 50.07405 19.80067 800 ft 2 kts 77°
2026-05-07 10:30 50.07412 19.80121 800 ft 7 kts 78°
2026-05-07 10:30 50.07422 19.80190 800 ft 6 kts 78°
2026-05-07 10:30 50.07429 19.80245 800 ft 5 kts 78°
2026-05-07 10:31 50.07439 19.80313 800 ft 8 kts 76°
2026-05-07 10:31 50.07481 19.80383 800 ft 9 kts 26°
2026-05-07 10:31 50.07535 19.80407 800 ft 7 kts 15°
2026-05-07 10:31 50.07580 19.80423 800 ft 6 kts
2026-05-07 10:32 50.07626 19.80407 800 ft 8 kts 343°
2026-05-07 10:32 50.07673 19.80392 800 ft 6 kts 349°
2026-05-07 10:32 50.07725 19.80376 800 ft 11 kts 348°
2026-05-07 10:32 50.07809 19.80347 800 ft 13 kts 347°
2026-05-07 10:33 50.07899 19.80316 800 ft 14 kts 348°
2026-05-07 10:33 50.07987 19.80286 799 ft 9 kts 346°
2026-05-07 10:33 50.08019 19.80217 800 ft 8 kts 266°
2026-05-07 10:33 50.08015 19.80192 800 ft 0 kts 256°
2026-05-07 10:34 50.08015 19.80191 800 ft 1 kts 256°
2026-05-07 10:35 50.07985 19.79996 801 ft 51 kts 257°
2026-05-07 10:35 50.07861 19.79104 801 ft 114 kts 258°
2026-05-07 10:35 50.07660 19.77662 987 ft 148 kts 258°
2026-05-07 10:35 50.07428 19.76097 1778 ft 150 kts 257°
2026-05-07 10:36 50.07171 19.74476 2313 ft 163 kts 257°
2026-05-07 10:36 50.06915 19.72723 2906 ft 169 kts 258°
2026-05-07 10:36 50.06676 19.70907 3505 ft 173 kts 258°
2026-05-07 10:36 50.06430 19.69047 4049 ft 179 kts 258°
2026-05-07 10:37 50.06153 19.67053 4333 ft 197 kts 257°
2026-05-07 10:37 50.05832 19.64890 4718 ft 213 kts 256°
2026-05-07 10:37 50.05483 19.62538 5123 ft 235 kts 257°
2026-05-07 10:37 50.05131 19.59991 5665 ft 251 kts 257°
2026-05-07 10:38 50.04765 19.57298 6478 ft 257 kts 257°
2026-05-07 10:38 50.04391 19.54563 7325 ft 260 kts 256°
2026-05-07 10:38 50.04006 19.51800 8183 ft 263 kts 256°
2026-05-07 10:38 50.03612 19.48998 9007 ft 267 kts 256°
2026-05-07 10:39 50.03209 19.46156 9846 ft 270 kts 256°
2026-05-07 10:39 50.02828 19.43231 10334 ft 287 kts 260°
2026-05-07 10:39 50.02740 19.39994 10570 ft 313 kts 271°
2026-05-07 10:39 50.03035 19.36568 10853 ft 333 kts 276°
2026-05-07 10:40 50.03408 19.32971 11475 ft 339 kts 276°
2026-05-07 10:40 50.03780 19.29322 12150 ft 344 kts 276°
2026-05-07 10:40 50.04153 19.25624 12850 ft 348 kts 276°
2026-05-07 10:40 50.04529 19.21885 13534 ft 352 kts 276°
2026-05-07 10:41 50.04905 19.18097 14183 ft 356 kts 276°
2026-05-07 10:41 50.05283 19.14276 14819 ft 359 kts 276°
2026-05-07 10:41 50.05661 19.10426 15453 ft 361 kts 275°
2026-05-07 10:41 50.06035 19.06596 16076 ft 364 kts 275°
2026-05-07 10:42 50.06416 19.02692 16721 ft 366 kts 275°
2026-05-07 10:42 50.06800 18.98764 17340 ft 369 kts 275°
2026-05-07 10:42 50.07184 18.94802 17941 ft 371 kts 275°
2026-05-07 10:42 50.07568 18.90813 18490 ft 374 kts 275°
2026-05-07 10:43 50.07957 18.86798 19008 ft 376 kts 274°
2026-05-07 10:43 50.08347 18.82752 19525 ft 379 kts 274°
2026-05-07 10:43 50.08736 18.78687 20045 ft 381 kts 274°
2026-05-07 10:43 50.09199 18.74598 20549 ft 385 kts 276°
2026-05-07 10:44 50.09767 18.70505 21033 ft 389 kts 278°
2026-05-07 10:44 50.10389 18.66455 21500 ft 391 kts 278°
2026-05-07 10:44 50.11044 18.62323 21986 ft 394 kts 278°
2026-05-07 10:44 50.11698 18.58166 22477 ft 396 kts 277°
2026-05-07 10:45 50.12336 18.53980 22936 ft 398 kts 277°
2026-05-07 10:45 50.12960 18.49760 23398 ft 401 kts 276°
2026-05-07 10:45 50.13541 18.45508 23784 ft 402 kts 274°
2026-05-07 10:45 50.14040 18.41214 24163 ft 403 kts 273°
2026-05-07 10:46 50.14488 18.36896 24520 ft 405 kts 272°
2026-05-07 10:46 50.14918 18.32544 24870 ft 407 kts 272°
2026-05-07 10:46 50.15346 18.28229 25209 ft 409 kts 272°
2026-05-07 10:46 50.15794 18.23831 25545 ft 412 kts 273°
2026-05-07 10:47 50.16257 18.19410 25887 ft 415 kts 273°
2026-05-07 10:47 50.16732 18.14964 26226 ft 417 kts 273°
2026-05-07 10:47 50.17212 18.10490 26559 ft 419 kts 273°
2026-05-07 10:47 50.17692 18.05992 26887 ft 422 kts 273°
2026-05-07 10:48 50.18174 18.01465 27209 ft 424 kts 273°
2026-05-07 10:48 50.18657 17.96914 27520 ft 426 kts 273°
2026-05-07 10:48 50.19138 17.92337 27829 ft 429 kts 273°
2026-05-07 10:48 50.19610 17.87800 28126 ft 431 kts 273°
2026-05-07 10:49 50.20087 17.83175 28419 ft 433 kts 273°
2026-05-07 10:49 50.20563 17.78524 28714 ft 435 kts 273°
2026-05-07 10:49 50.20929 17.73848 28987 ft 432 kts 267°
2026-05-07 10:49 50.20968 17.69169 29323 ft 431 kts 264°
2026-05-07 10:50 50.20980 17.64499 29778 ft 429 kts 264°
2026-05-07 10:50 50.20991 17.59860 30242 ft 426 kts 264°
2026-05-07 10:50 50.20997 17.55254 30626 ft 424 kts 264°
2026-05-07 10:50 50.21001 17.50726 30983 ft 422 kts 264°
2026-05-07 10:51 50.21036 17.46144 31317 ft 422 kts 264°
2026-05-07 10:51 50.21110 17.41563 31618 ft 422 kts 265°
2026-05-07 10:51 50.21206 17.36988 31933 ft 422 kts 265°
2026-05-07 10:51 50.21308 17.32427 32295 ft 420 kts 265°
2026-05-07 10:52 50.21406 17.27871 32643 ft 419 kts 265°
2026-05-07 10:52 50.21493 17.23337 32980 ft 418 kts 265°
2026-05-07 10:52 50.21569 17.18821 33292 ft 414 kts 265°
2026-05-07 10:52 50.21637 17.14341 33566 ft 412 kts 265°
2026-05-07 10:53 50.21699 17.09938 33833 ft 411 kts 265°
2026-05-07 10:53 50.21760 17.05481 33923 ft 411 kts 265°
2026-05-07 10:53 50.21877 16.96573 33931 ft 410 kts 265°
2026-05-07 10:54 50.21998 16.87682 33933 ft 409 kts 265°
2026-05-07 10:54 50.22107 16.78804 33934 ft 409 kts 264°
2026-05-07 10:55 50.22211 16.69963 33937 ft 411 kts 264°
2026-05-07 10:55 50.22313 16.61037 33932 ft 411 kts 264°
2026-05-07 10:56 50.22405 16.52121 33925 ft 411 kts 264°
2026-05-07 10:56 50.22486 16.43192 33926 ft 411 kts 264°
2026-05-07 10:57 50.22565 16.34316 33929 ft 411 kts 264°
2026-05-07 10:57 50.22641 16.25382 33962 ft 412 kts 264°
2026-05-07 10:58 50.22703 16.16410 33920 ft 414 kts 264°
2026-05-07 10:58 50.22761 16.07453 33917 ft 416 kts 264°
2026-05-07 10:59 50.22814 15.98410 33924 ft 417 kts 264°
2026-05-07 10:59 50.22858 15.89350 33926 ft 417 kts 264°
2026-05-07 11:00 50.22895 15.80281 33973 ft 418 kts 264°
2026-05-07 11:00 50.22929 15.71210 33964 ft 418 kts 264°
2026-05-07 11:01 50.22956 15.62142 33947 ft 417 kts 264°
2026-05-07 11:01 50.22977 15.53136 33934 ft 417 kts 264°
2026-05-07 11:02 50.22983 15.44072 33933 ft 417 kts 264°
2026-05-07 11:02 50.22982 15.35003 33922 ft 418 kts 264°
2026-05-07 11:03 50.22978 15.25923 33945 ft 418 kts 264°
2026-05-07 11:03 50.22967 15.16895 33916 ft 419 kts 264°
2026-05-07 11:04 50.22942 15.07800 33912 ft 419 kts 264°
2026-05-07 11:04 50.22915 14.98698 33911 ft 419 kts 264°
2026-05-07 11:05 50.22882 14.89602 33914 ft 419 kts 264°
2026-05-07 11:05 50.22843 14.80557 33938 ft 420 kts 264°
2026-05-07 11:06 50.22798 14.71430 33927 ft 421 kts 264°
2026-05-07 11:06 50.22743 14.62277 33926 ft 422 kts 264°
2026-05-07 11:07 50.22684 14.53111 33932 ft 422 kts 264°
2026-05-07 11:07 50.22618 14.44004 33932 ft 423 kts 264°
2026-05-07 11:08 50.22536 14.34826 33956 ft 423 kts 264°
2026-05-07 11:08 50.22453 14.25616 33935 ft 425 kts 264°
2026-05-07 11:09 50.22380 14.17942 33950 ft 426 kts 264°
2026-05-07 11:09 50.22284 14.08688 33944 ft 427 kts 264°
2026-05-07 11:10 50.22155 13.97920 33918 ft 427 kts 264°
2026-05-07 11:10 50.22059 13.90205 33920 ft 428 kts 264°
2026-05-07 11:11 50.21939 13.80885 33904 ft 431 kts 266°
2026-05-07 11:11 50.21814 13.71492 33900 ft 434 kts 266°
2026-05-07 11:12 50.21655 13.60514 33905 ft 436 kts 265°
2026-05-07 11:12 50.21533 13.52574 33909 ft 437 kts 265°
2026-05-07 11:13 50.21378 13.43149 33910 ft 437 kts 265°
2026-05-07 11:13 50.21213 13.33653 33913 ft 438 kts 265°
2026-05-07 11:14 50.21046 13.24148 33919 ft 438 kts 265°
2026-05-07 11:14 50.20872 13.14644 33922 ft 438 kts 265°
2026-05-07 11:15 50.20690 13.05205 33939 ft 438 kts 265°
2026-05-07 11:15 50.20496 12.95708 33935 ft 438 kts 265°
2026-05-07 11:16 50.20295 12.86192 33941 ft 439 kts 266°
2026-05-07 11:16 50.20085 12.76647 33932 ft 440 kts 266°
2026-05-07 11:17 50.19874 12.67153 33930 ft 441 kts 266°
2026-05-07 11:17 50.19653 12.57573 33930 ft 442 kts 265°
2026-05-07 11:18 50.19410 12.47995 33943 ft 442 kts 265°
2026-05-07 11:18 50.19216 12.38421 33948 ft 442 kts 271°
2026-05-07 11:19 50.19752 12.33691 33751 ft 446 kts 286°
2026-05-07 11:19 50.20769 12.29110 33483 ft 447 kts 287°
2026-05-07 11:19 50.21804 12.24598 33213 ft 448 kts 288°
2026-05-07 11:19 50.22864 12.20020 32945 ft 449 kts 288°
2026-05-07 11:20 50.23933 12.15413 32701 ft 456 kts 288°
2026-05-07 11:20 50.25020 12.10695 32428 ft 467 kts 288°
2026-05-07 11:20 50.26110 12.05932 32174 ft 461 kts 288°
2026-05-07 11:20 50.27181 12.01252 31930 ft 455 kts 289°
2026-05-07 11:21 50.28241 11.96609 31674 ft 453 kts 289°
2026-05-07 11:21 50.29295 11.91969 31412 ft 453 kts 289°
2026-05-07 11:21 50.30345 11.87318 31161 ft 454 kts 290°
2026-05-07 11:21 50.31380 11.82717 30914 ft 455 kts 290°
2026-05-07 11:22 50.32430 11.78049 30668 ft 455 kts 290°
2026-05-07 11:22 50.33480 11.73379 30424 ft 455 kts 290°
2026-05-07 11:22 50.34533 11.68695 30180 ft 456 kts 290°
2026-05-07 11:22 50.35581 11.64011 29918 ft 456 kts 290°
2026-05-07 11:23 50.36619 11.59311 29619 ft 458 kts 289°
2026-05-07 11:23 50.37239 11.54392 29326 ft 464 kts 277°
2026-05-07 11:23 50.37562 11.49344 29014 ft 467 kts 277°
2026-05-07 11:23 50.37875 11.44283 28725 ft 467 kts 277°
2026-05-07 11:24 50.38180 11.39214 28415 ft 468 kts 277°
2026-05-07 11:24 50.38476 11.34130 28082 ft 468 kts 276°
2026-05-07 11:24 50.38850 11.29139 27757 ft 467 kts 284°
2026-05-07 11:24 50.39869 11.24345 27442 ft 464 kts 293°
2026-05-07 11:25 50.40938 11.19560 27116 ft 466 kts 290°
2026-05-07 11:25 50.41939 11.14728 26793 ft 466 kts 288°
2026-05-07 11:25 50.42521 11.09722 26479 ft 469 kts 275°
2026-05-07 11:25 50.42739 11.04609 26167 ft 470 kts 274°
2026-05-07 11:26 50.42944 10.99499 25863 ft 470 kts 274°
2026-05-07 11:26 50.43141 10.94376 25564 ft 469 kts 274°
2026-05-07 11:26 50.43328 10.89399 25047 ft 458 kts 274°
2026-05-07 11:26 50.43505 10.84482 24002 ft 447 kts 274°
2026-05-07 11:27 50.43674 10.79668 23416 ft 436 kts 274°
2026-05-07 11:27 50.43838 10.75010 23303 ft 419 kts 274°
2026-05-07 11:27 50.43997 10.70536 23157 ft 406 kts 274°
2026-05-07 11:27 50.44159 10.66065 22872 ft 413 kts 274°
2026-05-07 11:28 50.44321 10.61555 22596 ft 414 kts 275°
2026-05-07 11:28 50.44476 10.57061 22330 ft 412 kts 274°
2026-05-07 11:28 50.44631 10.52577 22060 ft 411 kts 274°
2026-05-07 11:28 50.44781 10.48175 21798 ft 409 kts 274°
2026-05-07 11:29 50.44933 10.43736 21521 ft 405 kts 274°
2026-05-07 11:29 50.45081 10.39363 21038 ft 399 kts 274°
2026-05-07 11:29 50.45226 10.35045 20551 ft 394 kts 274°
2026-05-07 11:29 50.45367 10.30789 20075 ft 388 kts 274°
2026-05-07 11:30 50.45503 10.26582 19609 ft 384 kts 273°
2026-05-07 11:30 50.45634 10.22429 19173 ft 379 kts 273°
2026-05-07 11:30 50.45763 10.18311 18708 ft 376 kts 274°
2026-05-07 11:30 50.45890 10.14227 18235 ft 374 kts 274°
2026-05-07 11:31 50.46014 10.10225 17729 ft 370 kts 274°
2026-05-07 11:31 50.46139 10.06214 17251 ft 367 kts 274°
2026-05-07 11:31 50.46259 10.02233 16784 ft 364 kts 274°
2026-05-07 11:31 50.46379 9.98282 16299 ft 361 kts 274°
2026-05-07 11:32 50.46614 9.90464 15313 ft 357 kts 274°
2026-05-07 11:32 50.46728 9.86586 14821 ft 355 kts 274°
2026-05-07 11:32 50.46837 9.82729 14333 ft 353 kts 274°
2026-05-07 11:33 50.46943 9.78937 13843 ft 352 kts 274°
2026-05-07 11:33 50.47046 9.75103 13298 ft 350 kts 274°
2026-05-07 11:33 50.47145 9.71303 12798 ft 347 kts 274°
2026-05-07 11:33 50.47243 9.67540 12286 ft 343 kts 274°
2026-05-07 11:34 50.47343 9.63813 11780 ft 340 kts 274°
2026-05-07 11:34 50.47422 9.60111 11264 ft 338 kts 270°
2026-05-07 11:34 50.47135 9.56438 11016 ft 342 kts 258°
2026-05-07 11:34 50.46490 9.52838 10777 ft 343 kts 255°
2026-05-07 11:35 50.45825 9.49305 10532 ft 342 kts 255°
2026-05-07 11:35 50.45151 9.45737 10294 ft 340 kts 255°
2026-05-07 11:35 50.44480 9.42196 10069 ft 334 kts 255°
2026-05-07 11:35 50.43833 9.38782 9940 ft 320 kts 255°
2026-05-07 11:36 50.43213 9.35507 9806 ft 307 kts 255°
2026-05-07 11:36 50.42615 9.32364 9672 ft 295 kts 255°
2026-05-07 11:36 50.42034 9.29334 9518 ft 285 kts 255°
2026-05-07 11:36 50.41467 9.26389 9203 ft 281 kts 255°
2026-05-07 11:37 50.40896 9.23510 8821 ft 280 kts 253°
2026-05-07 11:37 50.40258 9.20634 8452 ft 278 kts 252°
2026-05-07 11:37 50.39592 9.17796 8081 ft 277 kts 251°
2026-05-07 11:37 50.38921 9.14978 7703 ft 275 kts 251°
2026-05-07 11:38 50.38256 9.12178 7341 ft 273 kts 251°
2026-05-07 11:38 50.37605 9.09424 7156 ft 264 kts 251°
2026-05-07 11:38 50.36982 9.06779 7036 ft 253 kts 251°
2026-05-07 11:38 50.36122 9.04459 6885 ft 245 kts 226°
2026-05-07 11:39 50.34692 9.03138 6627 ft 245 kts 195°
2026-05-07 11:39 50.33005 9.03144 6300 ft 246 kts 164°
2026-05-07 11:39 50.31390 9.04022 5924 ft 246 kts 162°
2026-05-07 11:39 50.29756 9.04805 5560 ft 245 kts 163°
2026-05-07 11:40 50.28118 9.05563 5209 ft 245 kts 164°
2026-05-07 11:40 50.26492 9.06301 4999 ft 242 kts 169°
2026-05-07 11:40 50.24814 9.06473 5001 ft 243 kts 182°
2026-05-07 11:40 50.23123 9.06391 5002 ft 243 kts 184°
2026-05-07 11:41 50.21433 9.06278 5007 ft 243 kts 185°
2026-05-07 11:41 50.19795 9.05906 5006 ft 241 kts 193°
2026-05-07 11:41 50.18194 9.05165 5000 ft 239 kts 209°
2026-05-07 11:41 50.16862 9.03657 5004 ft 236 kts 230°
2026-05-07 11:42 50.15964 9.01554 4998 ft 233 kts 250°
2026-05-07 11:42 50.15398 8.99190 5001 ft 232 kts 252°
2026-05-07 11:42 50.14864 8.96882 4997 ft 218 kts 252°
2026-05-07 11:42 50.14360 8.94723 4998 ft 205 kts 253°
2026-05-07 11:43 50.13889 8.92719 5026 ft 192 kts 252°
2026-05-07 11:43 50.13434 8.90774 5008 ft 190 kts 253°
2026-05-07 11:43 50.12980 8.88839 5011 ft 190 kts 253°
2026-05-07 11:43 50.12528 8.86913 5006 ft 189 kts 253°
2026-05-07 11:44 50.12080 8.85008 4893 ft 189 kts 253°
2026-05-07 11:44 50.11627 8.83086 4659 ft 189 kts 253°
2026-05-07 11:44 50.11176 8.81170 4393 ft 188 kts 252°
2026-05-07 11:44 50.10726 8.79265 4120 ft 187 kts 252°
2026-05-07 11:45 50.10278 8.77362 3851 ft 186 kts 253°
2026-05-07 11:45 50.09830 8.75468 3583 ft 186 kts 252°
2026-05-07 11:45 50.09384 8.73586 3313 ft 185 kts 253°
2026-05-07 11:45 50.08939 8.71703 3040 ft 185 kts 252°
2026-05-07 11:46 50.08496 8.69833 2781 ft 183 kts 252°
2026-05-07 11:46 50.08054 8.67969 2514 ft 184 kts 252°
2026-05-07 11:46 50.07627 8.66171 2243 ft 175 kts 252°
2026-05-07 11:46 50.07219 8.64456 1996 ft 163 kts 252°
2026-05-07 11:47 50.06844 8.62879 1762 ft 148 kts 253°
2026-05-07 11:47 50.06496 8.61417 1544 ft 141 kts 253°
2026-05-07 11:47 50.06162 8.60011 1350 ft 138 kts 254°
2026-05-07 11:47 50.05831 8.58619 1151 ft 137 kts 254°
2026-05-07 11:48 50.05497 8.57242 932 ft 135 kts 252°
2026-05-07 11:48 50.05177 8.55875 767 ft 134 kts 252°
2026-05-07 11:48 50.04860 8.54519 571 ft 136 kts 250°
2026-05-07 11:48 50.04530 8.53163 380 ft 133 kts 251°
2026-05-07 11:49 50.04232 8.51909 336 ft 97 kts 250°
2026-05-07 11:49 50.04091 8.51316 329 ft 39 kts 250°
2026-05-07 11:49 50.03988 8.51038 326 ft 23 kts 229°
2026-05-07 11:49 50.03885 8.50894 325 ft 18 kts 219°
2026-05-07 11:50 50.03790 8.50861 330 ft 12 kts 141°
2026-05-07 11:50 50.03792 8.50970 335 ft 13 kts 69°
2026-05-07 11:50 50.03829 8.51121 334 ft 14 kts 69°
2026-05-07 11:50 50.03861 8.51259 335 ft 13 kts 70°
2026-05-07 11:51 50.03895 8.51399 335 ft 15 kts 69°
2026-05-07 11:51 50.03937 8.51577 334 ft 20 kts 70°
2026-05-07 11:51 50.03989 8.51788 336 ft 22 kts 68°
2026-05-07 11:51 50.04043 8.52010 338 ft 21 kts 70°
2026-05-07 11:52 50.04091 8.52219 347 ft 20 kts 70°
2026-05-07 11:52 50.04136 8.52408 349 ft 18 kts 69°
2026-05-07 11:52 50.04184 8.52608 357 ft 21 kts 69°
2026-05-07 11:52 50.04239 8.52836 352 ft 24 kts 69°
2026-05-07 11:53 50.04296 8.53077 358 ft 24 kts 70°
2026-05-07 11:53 50.04350 8.53302 368 ft 20 kts 69°
2026-05-07 11:53 50.04388 8.53467 374 ft 13 kts 75°
2026-05-07 11:53 50.04403 8.53639 375 ft 17 kts 84°
2026-05-07 11:54 50.04414 8.53812 375 ft 15 kts 84°
2026-05-07 11:54 50.04425 8.53969 375 ft 14 kts 84°
2026-05-07 11:54 50.04435 8.54121 375 ft 15 kts 84°
2026-05-07 11:54 50.04446 8.54292 375 ft 17 kts 84°
2026-05-07 11:55 50.04451 8.54479 369 ft 18 kts 97°
2026-05-07 11:55 50.04405 8.54650 366 ft 18 kts 124°
2026-05-07 11:55 50.04304 8.54778 360 ft 21 kts 158°
2026-05-07 11:55 50.04149 8.54864 356 ft 26 kts 160°
2026-05-07 11:56 50.04004 8.54950 358 ft 20 kts 159°
2026-05-07 11:56 50.03889 8.55018 355 ft 16 kts 160°
2026-05-07 11:56 50.03857 8.55153 356 ft 14 kts 70°
2026-05-07 11:56 50.03890 8.55287 354 ft 14 kts 70°
2026-05-07 11:57 50.03925 8.55438 357 ft 16 kts 69°
2026-05-07 11:57 50.03966 8.55612 353 ft 19 kts 72°
2026-05-07 11:57 50.04016 8.55814 354 ft 22 kts 69°
2026-05-07 11:57 50.04080 8.56068 357 ft 28 kts 67°
2026-05-07 11:58 50.04149 8.56360 356 ft 30 kts 71°
2026-05-07 11:58 50.04215 8.56653 359 ft 23 kts 69°
2026-05-07 11:58 50.04297 8.56813 361 ft 19 kts 13°
2026-05-07 11:58 50.04439 8.56852 362 ft 22 kts 10°
2026-05-07 11:59 50.04598 8.56909 356 ft 23 kts 13°
2026-05-07 11:59 50.04718 8.56981 359 ft 18 kts 25°
2026-05-07 11:59 50.04815 8.57049 356 ft 12 kts 24°
2026-05-07 11:59 50.04835 8.57114 358 ft 7 kts 112°
2026-05-07 12:00 50.04817 8.57171 363 ft 4 kts 113°
2026-05-07 12:00 50.04814 8.57180 362 ft 0 kts 114°